This is the latest recevied weather packets stored in our database for station/object W2JGA. If no packets are shown the sender has not sent any weather packets the latest 10 day(s).
| Time | Temp. | Humidity | Pressure | Rain* | Wind** | Luminosity | Snow |
|---|---|---|---|---|---|---|---|
| 1777999489 | 19.44° C | 69% | 1015.4 hPa | 0 mm | - | 681 W/m² | - |
| 1777999186 | 18.89° C | 68% | 1015.4 hPa | 0 mm | - | 511 W/m² | - |
| 1777998885 | 18.89° C | 71% | 1015.4 hPa | 0 mm | - | 373 W/m² | - |
| 1777998584 | 18.33° C | 72% | 1015.4 hPa | 0 mm | - | 284 W/m² | - |
| 1777998279 | 17.78° C | 74% | 1015.4 hPa | 0 mm | - | 262 W/m² | - |
| 1777997976 | 17.78° C | 74% | 1015.4 hPa | 0 mm | - | 199 W/m² | - |
| 1777997672 | 18.33° C | 74% | 1015.4 hPa | 0 mm | - | 217 W/m² | - |
| 1777997370 | 17.78° C | 76% | 1015.4 hPa | 0 mm | - | 184 W/m² | - |
| 1777997068 | 17.78° C | 75% | 1015.8 hPa | 0 mm | - | 182 W/m² | - |
| 1777996764 | 17.78° C | 75% | 1015.8 hPa | 0 mm | - | 130 W/m² | - |
| 1777996461 | 17.78° C | 75% | 1015.4 hPa | 0 mm | - | 137 W/m² | - |
| 1777996153 | 17.78° C | 76% | 1015.4 hPa | 0 mm | - | 124 W/m² | - |
| 1777995848 | 17.78° C | 76% | 1015.4 hPa | 0 mm | - | 124 W/m² | - |
| 1777995545 | 17.78° C | 75% | 1015 hPa | 0 mm | - | 147 W/m² | - |
| 1777995242 | 17.78° C | 75% | 1015.4 hPa | 0 mm | - | 176 W/m² | - |
| 1777994938 | 17.78° C | 73% | 1015 hPa | 0 mm | - | 305 W/m² | - |
| 1777994636 | 17.78° C | 76% | 1015 hPa | 0 mm | - | 208 W/m² | - |
| 1777994335 | 17.22° C | 78% | 1015.4 hPa | 0 mm | - | 187 W/m² | - |
| 1777994032 | 17.22° C | 78% | 1015.4 hPa | 0 mm | - | 102 W/m² | - |
| 1777993729 | 16.67° C | 78% | 1015.4 hPa | 0 mm | - | 86 W/m² | - |
| 1777993427 | 16.67° C | 79% | 1015.4 hPa | 0 mm | - | 84 W/m² | - |
| 1777993127 | 16.67° C | 82% | 1015 hPa | 0 mm | - | 78 W/m² | - |
| 1777992825 | 16.67° C | 82% | 1015 hPa | 0 mm | - | 71 W/m² | - |
| 1777992522 | 16.67° C | 85% | 1015 hPa | 0 mm | - | 95 W/m² | - |
| 1777992221 | 16.11° C | 85% | 1015 hPa | 0 mm | - | 85 W/m² | - |
* Rain latest hour (hover to see other rain measurements)
** Current wind speed in m/s (hover to see current wind gust speed)